UAL2632 KLAX-KIAD

Flight info

Callsign UAL2632
Flight time 2h 46m
Altitude 39000
Route ORCKA5 LAS J146 DVC J197 HGO SLN/N0477F410 STL Q176 BICKS JARLO GIBBZ5
Aircraft B772/H-SDE2E3FGHIJ5LORVWXY/LB1D1

Departure

Time 2026-04-24 03:04
Airport Los Angeles International Airport (KLAX)

Arrival

Time 2026-04-24 05:50
Airport Washington Dulles International Airport (KIAD)
Time Latitude Longitude Altitude Speed Heading
2026-04-24 02:22 33.94033 -118.39986 98 ft 0 kts 49°
2026-04-24 02:52 33.94031 -118.39988 98 ft 2 kts 49°
2026-04-24 02:52 33.94014 -118.40011 96 ft 4 kts 49°
2026-04-24 02:52 33.94001 -118.40031 97 ft 4 kts 48°
2026-04-24 02:52 33.93981 -118.40053 99 ft 4 kts 35°
2026-04-24 02:53 33.93960 -118.40071 98 ft 4 kts 50°
2026-04-24 02:53 33.93952 -118.40093 98 ft 4 kts 82°
2026-04-24 02:53 33.93948 -118.40125 98 ft 4 kts 82°
2026-04-24 02:53 33.93947 -118.40133 98 ft 0 kts 82°
2026-04-24 02:57 33.93948 -118.40127 98 ft 5 kts 82°
2026-04-24 02:57 33.93956 -118.40057 100 ft 9 kts 82°
2026-04-24 02:58 33.93964 -118.39978 101 ft 13 kts 83°
2026-04-24 02:58 33.93976 -118.39857 98 ft 9 kts 83°
2026-04-24 02:58 33.93942 -118.39806 100 ft 9 kts 146°
2026-04-24 02:58 33.93909 -118.39724 100 ft 17 kts 92°
2026-04-24 02:59 33.93922 -118.39574 99 ft 18 kts 83°
2026-04-24 02:59 33.93938 -118.39424 101 ft 18 kts 82°
2026-04-24 02:59 33.93958 -118.39275 100 ft 18 kts 80°
2026-04-24 02:59 33.93970 -118.39121 99 ft 22 kts 85°
2026-04-24 03:00 33.93988 -118.38934 98 ft 22 kts 83°
2026-04-24 03:00 33.94007 -118.38748 99 ft 22 kts 82°
2026-04-24 03:00 33.94026 -118.38561 101 ft 22 kts 83°
2026-04-24 03:00 33.94044 -118.38391 100 ft 19 kts 83°
2026-04-24 03:01 33.94060 -118.38237 99 ft 19 kts 83°
2026-04-24 03:01 33.94074 -118.38094 99 ft 12 kts 83°
2026-04-24 03:01 33.94078 -118.38045 97 ft 0 kts 94°
2026-04-24 03:03 33.94075 -118.38031 97 ft 8 kts 108°
2026-04-24 03:03 33.94027 -118.37999 100 ft 8 kts 174°
2026-04-24 03:03 33.93981 -118.38029 99 ft 10 kts 248°
2026-04-24 03:03 33.93966 -118.38188 102 ft 31 kts 263°
2026-04-24 03:04 33.93917 -118.38669 101 ft 93 kts 262°
2026-04-24 03:04 33.93806 -118.39731 106 ft 160 kts 262°
2026-04-24 03:04 33.93656 -118.41138 805 ft 163 kts 262°
2026-04-24 03:04 33.93525 -118.42464 1845 ft 156 kts 264°
2026-04-24 03:05 33.93400 -118.43708 2511 ft 145 kts 265°
2026-04-24 03:05 33.93278 -118.44903 2920 ft 145 kts 265°
2026-04-24 03:05 33.93119 -118.46186 3022 ft 165 kts 253°
2026-04-24 03:05 33.92704 -118.47546 3242 ft 182 kts 251°
2026-04-24 03:06 33.92228 -118.49031 3470 ft 202 kts 250°
2026-04-24 03:06 33.91678 -118.50700 3689 ft 225 kts 249°
2026-04-24 03:06 33.91070 -118.52520 4030 ft 243 kts 249°
2026-04-24 03:06 33.90377 -118.54440 4492 ft 253 kts 240°
2026-04-24 03:07 33.89094 -118.55910 5008 ft 263 kts 204°
2026-04-24 03:07 33.87281 -118.56251 5584 ft 272 kts 170°
2026-04-24 03:07 33.85571 -118.55314 6234 ft 275 kts 137°
2026-04-24 03:07 33.84398 -118.53500 6893 ft 279 kts 117°
2026-04-24 03:08 33.83773 -118.51267 7490 ft 287 kts 97°
2026-04-24 03:08 33.84981 -118.46830 8753 ft 296 kts 40°
2026-04-24 03:08 33.86744 -118.45604 9442 ft 295 kts 13°
2026-04-24 03:09 33.88743 -118.45079 10059 ft 298 kts
2026-04-24 03:09 33.90826 -118.44502 10389 ft 316 kts 12°
2026-04-24 03:09 33.92930 -118.43454 10532 ft 343 kts 29°
2026-04-24 03:09 33.94740 -118.41436 10821 ft 368 kts 53°
2026-04-24 03:10 33.96021 -118.38732 11374 ft 373 kts 60°
2026-04-24 03:10 33.97326 -118.35982 12011 ft 383 kts 55°
2026-04-24 03:10 33.98833 -118.33314 12943 ft 386 kts 52°
2026-04-24 03:10 34.00393 -118.30672 13890 ft 389 kts 52°
2026-04-24 03:11 34.01959 -118.27989 14673 ft 394 kts 52°
2026-04-24 03:11 34.03531 -118.25249 15454 ft 400 kts 53°
2026-04-24 03:11 34.05092 -118.22499 16218 ft 405 kts 53°
2026-04-24 03:11 34.06685 -118.19673 16990 ft 410 kts 53°
2026-04-24 03:12 34.08307 -118.16798 17620 ft 419 kts 52°
2026-04-24 03:12 34.09966 -118.13863 18258 ft 427 kts 52°
2026-04-24 03:12 34.11649 -118.10883 18886 ft 432 kts 52°
2026-04-24 03:12 34.13346 -118.07875 19589 ft 435 kts 52°
2026-04-24 03:13 34.15051 -118.04852 20262 ft 438 kts 52°
2026-04-24 03:13 34.16773 -118.01797 20892 ft 442 kts 52°
2026-04-24 03:13 34.18511 -117.98709 21511 ft 447 kts 52°
2026-04-24 03:13 34.20269 -117.95586 22052 ft 453 kts 52°
2026-04-24 03:14 34.22060 -117.92428 22585 ft 457 kts 52°
2026-04-24 03:14 34.23841 -117.89245 23301 ft 459 kts 53°
2026-04-24 03:14 34.25632 -117.86028 23906 ft 463 kts 53°
2026-04-24 03:14 34.27420 -117.82826 24386 ft 468 kts 53°
2026-04-24 03:15 34.29252 -117.79552 24924 ft 472 kts 52°
2026-04-24 03:15 34.31097 -117.76255 25513 ft 474 kts 52°
2026-04-24 03:15 34.32950 -117.72942 26029 ft 479 kts 53°
2026-04-24 03:15 34.34823 -117.69576 26509 ft 483 kts 52°
2026-04-24 03:16 34.36745 -117.66230 27016 ft 486 kts 51°
2026-04-24 03:16 34.38728 -117.62904 27488 ft 489 kts 50°
2026-04-24 03:16 34.40740 -117.59576 27933 ft 492 kts 50°
2026-04-24 03:16 34.42775 -117.56214 28368 ft 496 kts 50°
2026-04-24 03:17 34.44778 -117.53173 28819 ft 498 kts 48°
2026-04-24 03:17 34.46856 -117.49792 29297 ft 502 kts 50°
2026-04-24 03:17 34.48875 -117.46330 29712 ft 506 kts 51°
2026-04-24 03:17 34.50892 -117.42818 30101 ft 509 kts 51°
2026-04-24 03:18 34.52920 -117.39298 30414 ft 512 kts 51°
2026-04-24 03:18 34.54952 -117.35807 30732 ft 514 kts 51°
2026-04-24 03:18 34.57030 -117.32267 31074 ft 516 kts 51°
2026-04-24 03:18 34.59125 -117.28721 31389 ft 518 kts 51°
2026-04-24 03:19 34.61229 -117.25167 31667 ft 520 kts 51°
2026-04-24 03:19 34.63343 -117.21598 31913 ft 523 kts 51°
2026-04-24 03:19 34.65471 -117.17999 32084 ft 525 kts 51°
2026-04-24 03:19 34.67603 -117.14388 32325 ft 528 kts 51°
2026-04-24 03:20 34.69745 -117.10753 32591 ft 529 kts 51°
2026-04-24 03:20 34.71887 -117.07112 32846 ft 531 kts 51°
2026-04-24 03:20 34.74035 -117.03456 33157 ft 531 kts 51°
2026-04-24 03:20 34.76173 -116.99814 33519 ft 530 kts 51°
2026-04-24 03:21 34.78284 -116.96214 33882 ft 529 kts 51°
2026-04-24 03:21 34.80404 -116.92595 34182 ft 529 kts 51°
2026-04-24 03:21 34.82539 -116.88950 34460 ft 530 kts 51°
2026-04-24 03:21 34.84681 -116.85287 34644 ft 532 kts 51°
2026-04-24 03:22 34.86805 -116.81652 34864 ft 533 kts 51°
2026-04-24 03:22 34.88951 -116.77975 35163 ft 532 kts 51°
2026-04-24 03:22 34.91096 -116.74306 35433 ft 531 kts 50°
2026-04-24 03:22 34.93376 -116.70785 35681 ft 528 kts 44°
2026-04-24 03:23 34.95809 -116.67540 35918 ft 527 kts 42°
2026-04-24 03:23 34.98318 -116.64285 36156 ft 526 kts 42°
2026-04-24 03:23 35.00833 -116.61042 36398 ft 526 kts 42°
2026-04-24 03:23 35.03339 -116.57795 36664 ft 526 kts 42°
2026-04-24 03:24 35.05806 -116.54576 36924 ft 526 kts 42°
2026-04-24 03:24 35.08298 -116.51303 37166 ft 526 kts 42°
2026-04-24 03:24 35.10779 -116.48027 37406 ft 526 kts 42°
2026-04-24 03:24 35.13260 -116.44741 37639 ft 526 kts 42°
2026-04-24 03:25 35.15737 -116.41455 37884 ft 526 kts 42°
2026-04-24 03:25 35.18215 -116.38164 38150 ft 525 kts 42°
2026-04-24 03:25 35.20688 -116.34880 38412 ft 525 kts 42°
2026-04-24 03:25 35.23156 -116.31598 38629 ft 525 kts 42°
2026-04-24 03:26 35.25627 -116.28311 38790 ft 525 kts 42°
2026-04-24 03:26 35.30547 -116.21763 38908 ft 527 kts 42°
2026-04-24 03:27 35.35495 -116.15157 38926 ft 525 kts 42°
2026-04-24 03:27 35.40423 -116.08572 38944 ft 524 kts 42°
2026-04-24 03:28 35.45343 -116.01981 38954 ft 523 kts 42°
2026-04-24 03:28 35.50249 -115.95396 38965 ft 523 kts 43°
2026-04-24 03:29 35.55158 -115.88793 38985 ft 523 kts 43°
2026-04-24 03:29 35.60025 -115.82235 38984 ft 523 kts 43°
2026-04-24 03:30 35.64923 -115.75613 38989 ft 524 kts 43°
2026-04-24 03:30 35.69792 -115.68935 38988 ft 524 kts 43°
2026-04-24 03:31 35.74648 -115.62238 38989 ft 525 kts 43°
2026-04-24 03:31 35.79510 -115.55531 38993 ft 525 kts 43°
2026-04-24 03:32 35.84341 -115.48862 39009 ft 526 kts 43°
2026-04-24 03:32 35.89208 -115.42131 38996 ft 526 kts 43°
2026-04-24 03:33 35.94066 -115.35395 38985 ft 526 kts 43°
2026-04-24 03:33 35.98926 -115.28643 38981 ft 526 kts 43°
2026-04-24 03:34 36.03746 -115.21932 38940 ft 526 kts 44°
2026-04-24 03:34 36.08013 -115.14524 38950 ft 533 kts 57°
2026-04-24 03:35 36.11151 -115.06187 38945 ft 537 kts 67°
2026-04-24 03:35 36.13701 -114.97501 38894 ft 537 kts 68°
2026-04-24 03:36 36.16290 -114.88829 38869 ft 538 kts 67°
2026-04-24 03:36 36.18944 -114.80175 38877 ft 537 kts 67°
2026-04-24 03:37 36.21585 -114.71580 38858 ft 538 kts 67°
2026-04-24 03:37 36.24236 -114.62921 38843 ft 538 kts 67°
2026-04-24 03:38 36.26886 -114.54245 38835 ft 538 kts 67°
2026-04-24 03:38 36.29527 -114.45562 38847 ft 539 kts 67°
2026-04-24 03:39 36.32144 -114.36929 38858 ft 539 kts 67°
2026-04-24 03:39 36.34776 -114.28224 38848 ft 539 kts 67°
2026-04-24 03:40 36.37399 -114.19513 38856 ft 539 kts 67°
2026-04-24 03:40 36.40022 -114.10792 38858 ft 539 kts 67°
2026-04-24 03:41 36.42636 -114.02067 38872 ft 539 kts 67°
2026-04-24 03:41 36.45241 -113.93343 38878 ft 539 kts 67°
2026-04-24 03:42 36.47825 -113.84663 38891 ft 539 kts 67°
2026-04-24 03:42 36.50419 -113.75923 38894 ft 539 kts 67°
2026-04-24 03:43 36.53010 -113.67160 38903 ft 540 kts 67°
2026-04-24 03:43 36.55591 -113.58404 38907 ft 540 kts 67°
2026-04-24 03:44 36.58171 -113.49639 38915 ft 539 kts 68°
2026-04-24 03:44 36.60725 -113.40921 38926 ft 540 kts 68°
2026-04-24 03:45 36.63291 -113.32134 38916 ft 540 kts 68°
2026-04-24 03:45 36.65838 -113.23332 38949 ft 541 kts 68°
2026-04-24 03:46 36.68378 -113.14507 38950 ft 541 kts 68°
2026-04-24 03:46 36.70910 -113.05683 38979 ft 541 kts 68°
2026-04-24 03:47 36.73425 -112.96903 39007 ft 542 kts 68°
2026-04-24 03:47 36.75953 -112.88046 38982 ft 542 kts 68°
2026-04-24 03:48 36.78475 -112.79179 38974 ft 542 kts 68°
2026-04-24 03:48 36.80564 -112.71812 38968 ft 543 kts 68°
2026-04-24 03:49 36.83486 -112.61478 38931 ft 543 kts 68°
2026-04-24 03:49 36.85991 -112.52582 38926 ft 543 kts 68°
2026-04-24 03:50 36.88072 -112.45177 38940 ft 544 kts 68°
2026-04-24 03:50 36.90577 -112.36254 38929 ft 545 kts 68°
2026-04-24 03:51 36.93085 -112.27315 38920 ft 545 kts 68°
2026-04-24 03:51 36.95588 -112.18368 38912 ft 546 kts 68°
2026-04-24 03:52 36.98089 -112.09397 38910 ft 546 kts 68°
2026-04-24 03:52 37.00581 -112.00428 38895 ft 546 kts 68°
2026-04-24 03:53 37.03047 -111.91518 38875 ft 546 kts 68°
2026-04-24 03:53 37.05525 -111.82539 38900 ft 546 kts 68°
2026-04-24 03:54 37.07996 -111.73550 38856 ft 546 kts 68°
2026-04-24 03:54 37.10463 -111.64547 38849 ft 546 kts 68°
2026-04-24 03:55 37.12908 -111.55589 38904 ft 547 kts 68°
2026-04-24 03:55 37.15363 -111.46572 38896 ft 546 kts 68°
2026-04-24 03:56 37.17810 -111.37558 38865 ft 545 kts 68°
2026-04-24 03:56 37.20239 -111.28561 38847 ft 545 kts 68°
2026-04-24 03:57 37.22647 -111.19629 38838 ft 545 kts 69°
2026-04-24 03:57 37.25067 -111.10611 38856 ft 546 kts 68°
2026-04-24 03:58 37.27484 -111.01567 38858 ft 547 kts 69°
2026-04-24 03:58 37.29896 -110.92512 38845 ft 547 kts 69°
2026-04-24 03:59 37.32290 -110.83504 38843 ft 547 kts 69°
2026-04-24 03:59 37.34691 -110.74424 38845 ft 547 kts 69°
2026-04-24 04:00 37.37086 -110.65342 38850 ft 548 kts 69°
2026-04-24 04:00 37.39477 -110.56243 38864 ft 548 kts 69°
2026-04-24 04:01 37.41846 -110.47191 38883 ft 549 kts 69°
2026-04-24 04:01 37.44226 -110.38069 38875 ft 549 kts 69°
2026-04-24 04:02 37.46601 -110.28926 38876 ft 550 kts 69°
2026-04-24 04:02 37.48972 -110.19780 38886 ft 550 kts 69°
2026-04-24 04:03 37.51320 -110.10676 38901 ft 550 kts 69°
2026-04-24 04:03 37.53675 -110.01510 38899 ft 550 kts 69°
2026-04-24 04:04 37.56027 -109.92329 38903 ft 550 kts 69°
2026-04-24 04:04 37.58373 -109.83143 38907 ft 550 kts 69°
2026-04-24 04:05 37.60694 -109.74018 38908 ft 550 kts 69°
2026-04-24 04:05 37.63016 -109.64843 39018 ft 549 kts 69°
2026-04-24 04:06 37.65336 -109.55657 39043 ft 549 kts 69°
2026-04-24 04:06 37.67649 -109.46465 39033 ft 550 kts 70°
2026-04-24 04:07 37.69938 -109.37329 39017 ft 550 kts 70°
2026-04-24 04:07 37.72238 -109.28118 38983 ft 550 kts 70°
2026-04-24 04:08 37.74529 -109.18906 38958 ft 550 kts 70°
2026-04-24 04:08 37.76815 -109.09679 38944 ft 550 kts 70°
2026-04-24 04:09 37.79078 -109.00512 38941 ft 551 kts 70°
2026-04-24 04:09 37.81344 -108.91270 38944 ft 551 kts 71°
2026-04-24 04:10 37.83403 -108.81937 38946 ft 551 kts 73°
2026-04-24 04:10 37.85351 -108.72546 38954 ft 552 kts 73°
2026-04-24 04:11 37.88279 -108.58541 38951 ft 550 kts 73°
2026-04-24 04:11 37.90260 -108.49183 38963 ft 550 kts 73°
2026-04-24 04:12 37.92239 -108.39820 38983 ft 550 kts 73°
2026-04-24 04:12 37.94207 -108.30455 39001 ft 550 kts 73°
2026-04-24 04:13 37.96150 -108.21153 39051 ft 550 kts 73°
2026-04-24 04:13 37.98097 -108.11787 38971 ft 550 kts 73°
2026-04-24 04:14 38.00039 -108.02410 38971 ft 550 kts 73°
2026-04-24 04:14 38.01974 -107.93022 38979 ft 550 kts 73°
2026-04-24 04:15 38.03890 -107.83694 38978 ft 550 kts 73°
2026-04-24 04:15 38.05809 -107.74301 38987 ft 550 kts 73°
2026-04-24 04:16 38.07719 -107.64914 38985 ft 550 kts 73°
2026-04-24 04:16 38.09616 -107.55534 39009 ft 547 kts 73°
2026-04-24 04:17 38.11494 -107.46229 38987 ft 548 kts 73°
2026-04-24 04:17 38.13381 -107.36847 38994 ft 548 kts 73°
2026-04-24 04:18 38.15202 -107.27467 38990 ft 547 kts 74°
2026-04-24 04:18 38.17089 -107.18096 38989 ft 548 kts 73°
2026-04-24 04:19 38.18964 -107.08763 38984 ft 548 kts 73°
2026-04-24 04:19 38.20832 -106.99366 38991 ft 550 kts 74°
2026-04-24 04:20 38.22682 -106.89915 38991 ft 551 kts 74°
2026-04-24 04:20 38.24528 -106.80444 38964 ft 552 kts 74°
2026-04-24 04:21 38.26357 -106.71034 38962 ft 552 kts 74°
2026-04-24 04:21 38.28193 -106.61552 38952 ft 552 kts 74°
2026-04-24 04:22 38.30021 -106.52064 38939 ft 552 kts 74°
2026-04-24 04:22 38.31841 -106.42578 38924 ft 551 kts 74°
2026-04-24 04:23 38.33640 -106.33153 38939 ft 551 kts 74°
2026-04-24 04:23 38.35440 -106.23680 38961 ft 550 kts 74°
2026-04-24 04:24 38.37233 -106.14203 38985 ft 550 kts 74°
2026-04-24 04:24 38.39004 -106.04792 38986 ft 549 kts 74°
2026-04-24 04:25 38.40779 -105.95319 39004 ft 550 kts 75°
2026-04-24 04:25 38.41663 -105.90578 38874 ft 550 kts 75°
2026-04-24 04:25 38.42549 -105.85838 38873 ft 549 kts 75°
2026-04-24 04:26 38.44305 -105.76363 38886 ft 549 kts 75°
2026-04-24 04:26 38.46052 -105.66874 38877 ft 549 kts 75°
2026-04-24 04:27 38.47785 -105.57453 38876 ft 549 kts 75°
2026-04-24 04:27 38.49520 -105.47964 38872 ft 549 kts 75°
2026-04-24 04:28 38.51249 -105.38460 38882 ft 549 kts 75°
2026-04-24 04:28 38.52972 -105.28959 38867 ft 550 kts 75°
2026-04-24 04:29 38.54674 -105.19511 38862 ft 550 kts 75°
2026-04-24 04:29 38.56380 -105.09983 38866 ft 550 kts 76°
2026-04-24 04:30 38.58083 -105.00436 38856 ft 551 kts 76°
2026-04-24 04:30 38.59776 -104.90895 38876 ft 550 kts 76°
2026-04-24 04:31 38.61459 -104.81360 38862 ft 549 kts 76°
2026-04-24 04:31 38.63121 -104.71904 38852 ft 548 kts 76°
2026-04-24 04:32 38.64618 -104.62363 38817 ft 546 kts 85°
2026-04-24 04:32 38.65781 -104.52872 38835 ft 540 kts 73°
2026-04-24 04:33 38.67805 -104.43610 38891 ft 542 kts 72°
2026-04-24 04:33 38.69670 -104.34311 38867 ft 544 kts 75°
2026-04-24 04:34 38.71316 -104.24845 38841 ft 546 kts 77°
2026-04-24 04:34 38.72898 -104.15338 38818 ft 546 kts 77°
2026-04-24 04:35 38.74479 -104.05905 38822 ft 545 kts 77°
2026-04-24 04:35 38.76080 -103.96422 38821 ft 545 kts 77°
2026-04-24 04:36 38.78931 -103.79408 38818 ft 543 kts 77°
2026-04-24 04:36 38.82528 -103.47367 38706 ft 541 kts 88°
2026-04-24 04:37 38.83480 -103.21546 38806 ft 532 kts 87°
2026-04-24 04:37 38.84939 -102.83817 38820 ft 529 kts 88°
2026-04-24 04:38 38.86265 -102.46106 38819 ft 530 kts 88°
2026-04-24 04:38 38.87473 -102.08270 38827 ft 531 kts 89°
2026-04-24 04:39 38.88564 -101.70290 38822 ft 533 kts 89°
2026-04-24 04:39 38.89526 -101.32448 38822 ft 534 kts 90°
2026-04-24 04:40 38.90375 -100.94233 38851 ft 536 kts 90°
2026-04-24 04:40 38.91100 -100.55927 38817 ft 537 kts 90°
2026-04-24 04:41 38.91701 -100.17532 38790 ft 537 kts 91°
2026-04-24 04:41 38.92174 -99.79430 38793 ft 537 kts 91°
2026-04-24 04:42 38.92524 -99.40981 38748 ft 539 kts 91°
2026-04-24 04:42 38.92750 -99.02530 38783 ft 537 kts 91°
2026-04-24 04:43 38.92849 -98.64380 38773 ft 532 kts 92°
2026-04-24 04:43 38.92825 -98.26845 38719 ft 526 kts 93°
2026-04-24 04:44 38.92682 -97.89419 38719 ft 521 kts 95°
2026-04-24 04:44 38.92602 -97.52421 38746 ft 517 kts 94°
2026-04-24 04:45 38.93412 -97.15607 38718 ft 514 kts 94°
2026-04-24 04:45 38.93990 -96.79230 38702 ft 511 kts 95°
2026-04-24 04:46 38.94459 -96.42906 38653 ft 505 kts 96°
2026-04-24 04:46 38.94810 -96.07108 38674 ft 498 kts 97°
2026-04-24 04:47 38.95049 -95.71557 38747 ft 498 kts 98°
2026-04-24 04:47 38.95181 -95.36165 38740 ft 499 kts 98°
2026-04-24 04:48 38.95204 -95.00346 38770 ft 503 kts 97°
2026-04-24 04:48 38.95171 -94.82229 38955 ft 512 kts 95°
2026-04-24 04:48 38.95146 -94.72253 39351 ft 512 kts 95°
2026-04-24 04:49 38.95132 -94.67692 39731 ft 511 kts 95°
2026-04-24 04:49 38.95115 -94.63118 39907 ft 512 kts 95°
2026-04-24 04:49 38.95096 -94.58544 40068 ft 512 kts 95°
2026-04-24 04:49 38.95074 -94.53957 40178 ft 514 kts 93°
2026-04-24 04:50 38.95025 -94.44823 40289 ft 515 kts 93°
2026-04-24 04:50 38.94999 -94.40225 40451 ft 515 kts 93°
2026-04-24 04:50 38.94971 -94.35623 40599 ft 516 kts 93°
2026-04-24 04:51 38.94910 -94.26410 40741 ft 517 kts 93°
2026-04-24 04:51 38.94840 -94.17170 40783 ft 517 kts 92°
2026-04-24 04:52 38.94764 -94.08024 40762 ft 514 kts 92°
2026-04-24 04:52 38.94682 -93.98864 40792 ft 512 kts 92°
2026-04-24 04:53 38.94591 -93.89726 40807 ft 510 kts 92°
2026-04-24 04:53 38.94494 -93.80633 40811 ft 509 kts 92°
2026-04-24 04:54 38.94391 -93.71618 40779 ft 507 kts 92°
2026-04-24 04:54 38.94280 -93.62568 40795 ft 506 kts 92°
2026-04-24 04:55 38.94163 -93.53526 40794 ft 506 kts 92°
2026-04-24 04:55 38.94039 -93.44491 40791 ft 506 kts 92°
2026-04-24 04:56 38.93907 -93.35456 40802 ft 506 kts 93°
2026-04-24 04:56 38.93746 -93.24952 40817 ft 508 kts 93°
2026-04-24 04:57 38.93114 -92.88551 40778 ft 511 kts 93°
2026-04-24 04:57 38.92366 -92.52004 40783 ft 511 kts 92°
2026-04-24 04:58 38.91503 -92.15487 40771 ft 511 kts 92°
2026-04-24 04:58 38.90536 -91.79269 40773 ft 512 kts 92°
2026-04-24 04:59 38.89448 -91.42755 40776 ft 512 kts 92°
2026-04-24 04:59 38.88247 -91.06318 40791 ft 507 kts 92°
2026-04-24 05:00 38.87277 -90.79101 40712 ft 498 kts 92°
2026-04-24 05:00 38.86024 -90.45957 40801 ft 488 kts 91°
2026-04-24 05:01 38.85740 -90.10734 40867 ft 502 kts 90°
2026-04-24 05:01 38.85272 -89.74847 40807 ft 499 kts 90°
2026-04-24 05:02 38.84715 -89.39809 40821 ft 486 kts 90°
2026-04-24 05:02 38.84135 -89.08701 40857 ft 498 kts 91°
2026-04-24 05:03 38.83801 -88.92385 40880 ft 501 kts 91°
2026-04-24 05:03 38.83532 -88.80068 40869 ft 500 kts 91°
2026-04-24 05:04 38.82696 -88.44901 40843 ft 486 kts 91°
2026-04-24 05:04 38.81767 -88.10130 40999 ft 495 kts 91°
2026-04-24 05:05 38.81315 -87.94461 40417 ft 494 kts 92°
2026-04-24 05:05 38.81186 -87.90107 40243 ft 497 kts 92°
2026-04-24 05:05 38.80916 -87.81222 40178 ft 500 kts 92°
2026-04-24 05:06 38.80640 -87.72352 40081 ft 494 kts 92°
2026-04-24 05:06 38.80502 -87.67960 39844 ft 492 kts 92°
2026-04-24 05:06 38.80362 -87.63584 39683 ft 491 kts 92°
2026-04-24 05:07 38.80241 -87.59860 39518 ft 490 kts 92°
2026-04-24 05:08 38.80123 -87.56258 39372 ft 489 kts 92°
2026-04-24 05:08 38.79980 -87.51909 39209 ft 488 kts 92°
2026-04-24 05:08 38.79835 -87.47565 39062 ft 487 kts 93°
2026-04-24 05:08 38.79684 -87.43113 38994 ft 489 kts 93°
2026-04-24 05:09 38.79127 -87.27028 38851 ft 499 kts 93°
2026-04-24 05:09 38.78484 -87.09204 38941 ft 501 kts 93°
2026-04-24 05:09 38.77119 -86.73626 38927 ft 503 kts 93°
2026-04-24 05:10 38.75655 -86.38198 38906 ft 489 kts 93°
2026-04-24 05:10 38.74133 -86.03442 38937 ft 492 kts 93°
2026-04-24 05:11 38.72656 -85.71752 38981 ft 505 kts 93°
2026-04-24 05:11 38.71902 -85.56269 38963 ft 493 kts 94°
2026-04-24 05:11 38.71031 -85.38864 38968 ft 488 kts 94°
2026-04-24 05:12 38.68969 -85.03787 38985 ft 503 kts 96°
2026-04-24 05:12 38.66587 -84.72775 38901 ft 501 kts 96°
2026-04-24 05:13 38.62014 -84.20095 39042 ft 505 kts 98°
2026-04-24 05:14 38.60347 -84.03766 39073 ft 509 kts 98°
2026-04-24 05:14 38.57949 -83.80394 38991 ft 496 kts 98°
2026-04-24 05:15 38.54226 -83.45081 39022 ft 510 kts 98°
2026-04-24 05:15 38.50300 -83.08913 38930 ft 514 kts 98°
2026-04-24 05:16 38.47486 -82.83626 38887 ft 504 kts 98°
2026-04-24 05:16 38.46207 -82.72287 38992 ft 504 kts 98°
2026-04-24 05:17 38.45190 -82.63361 38979 ft 511 kts 98°
2026-04-24 05:17 38.44160 -82.54372 38976 ft 513 kts 98°
2026-04-24 05:18 38.41011 -82.27265 38957 ft 515 kts 98°
2026-04-24 05:18 38.36714 -81.91150 38972 ft 515 kts 98°
2026-04-24 05:19 38.34258 -81.54884 38959 ft 514 kts 90°
2026-04-24 05:19 38.33073 -81.18466 38978 ft 515 kts 91°
2026-04-24 05:20 38.31737 -80.82212 38987 ft 516 kts 91°
2026-04-24 05:20 38.30379 -80.45708 38976 ft 515 kts 85°
2026-04-24 05:20 38.31530 -80.38036 37744 ft 511 kts 71°
2026-04-24 05:21 38.32538 -80.33690 36916 ft 511 kts 70°
2026-04-24 05:21 38.33565 -80.29362 36202 ft 510 kts 70°
2026-04-24 05:21 38.34553 -80.25029 35532 ft 508 kts 71°
2026-04-24 05:21 38.35486 -80.20708 35032 ft 503 kts 72°
2026-04-24 05:22 38.36373 -80.16421 34552 ft 498 kts 72°
2026-04-24 05:22 38.37220 -80.12230 34066 ft 494 kts 72°
2026-04-24 05:22 38.38068 -80.08005 33519 ft 490 kts 72°
2026-04-24 05:22 38.38905 -80.03827 33016 ft 485 kts 72°
2026-04-24 05:23 38.39738 -79.99679 32505 ft 480 kts 72°
2026-04-24 05:23 38.40564 -79.95577 32016 ft 475 kts 72°
2026-04-24 05:23 38.41381 -79.91515 31560 ft 471 kts 72°
2026-04-24 05:23 38.42191 -79.87484 31085 ft 467 kts 72°
2026-04-24 05:24 38.42981 -79.83544 30621 ft 463 kts 72°
2026-04-24 05:24 38.43775 -79.79585 30162 ft 460 kts 72°
2026-04-24 05:24 38.44574 -79.75653 29630 ft 457 kts 72°
2026-04-24 05:24 38.45372 -79.71741 29035 ft 455 kts 72°
2026-04-24 05:25 38.46165 -79.67846 28508 ft 452 kts 72°
2026-04-24 05:25 38.46949 -79.63981 27976 ft 449 kts 72°
2026-04-24 05:25 38.47730 -79.60136 27460 ft 446 kts 72°
2026-04-24 05:25 38.48514 -79.56323 26953 ft 443 kts 72°
2026-04-24 05:26 38.49297 -79.52522 26430 ft 441 kts 72°
2026-04-24 05:26 38.50061 -79.48794 25938 ft 439 kts 73°
2026-04-24 05:26 38.50820 -79.45028 25441 ft 437 kts 73°
2026-04-24 05:26 38.51564 -79.41277 24934 ft 436 kts 73°
2026-04-24 05:27 38.52304 -79.37530 24420 ft 435 kts 73°
2026-04-24 05:27 38.53042 -79.33793 23927 ft 433 kts 74°
2026-04-24 05:27 38.53778 -79.30068 23371 ft 433 kts 74°
2026-04-24 05:27 38.54512 -79.26347 22805 ft 431 kts 74°
2026-04-24 05:28 38.55241 -79.22647 22292 ft 428 kts 74°
2026-04-24 05:28 38.55964 -79.18974 21794 ft 425 kts 74°
2026-04-24 05:28 38.56681 -79.15324 21295 ft 422 kts 75°
2026-04-24 05:28 38.57382 -79.11757 20823 ft 418 kts 75°
2026-04-24 05:29 38.58085 -79.08166 20392 ft 414 kts 75°
2026-04-24 05:29 38.58780 -79.04600 19932 ft 411 kts 75°
2026-04-24 05:29 38.59412 -79.01043 19488 ft 409 kts 77°
2026-04-24 05:29 38.59997 -78.97505 19038 ft 406 kts 77°
2026-04-24 05:30 38.60568 -78.94002 18539 ft 395 kts 77°
2026-04-24 05:30 38.61122 -78.90646 18035 ft 380 kts 77°
2026-04-24 05:30 38.61673 -78.87343 17581 ft 379 kts 77°
2026-04-24 05:30 38.62216 -78.84102 17174 ft 377 kts 77°
2026-04-24 05:31 38.62799 -78.80840 16724 ft 376 kts 74°
2026-04-24 05:31 38.63524 -78.77639 16270 ft 374 kts 71°
2026-04-24 05:31 38.64306 -78.74469 15831 ft 374 kts 71°
2026-04-24 05:31 38.65095 -78.71305 15374 ft 373 kts 71°
2026-04-24 05:32 38.65873 -78.68146 14936 ft 371 kts 71°
2026-04-24 05:32 38.66630 -78.65026 14480 ft 367 kts 71°
2026-04-24 05:32 38.67379 -78.61900 14016 ft 367 kts 71°
2026-04-24 05:32 38.68124 -78.58769 13525 ft 368 kts 71°
2026-04-24 05:33 38.68866 -78.55639 13068 ft 367 kts 71°
2026-04-24 05:33 38.69594 -78.52558 12602 ft 366 kts 72°
2026-04-24 05:33 38.70325 -78.49454 12153 ft 360 kts 71°
2026-04-24 05:34 38.71706 -78.43587 11324 ft 332 kts 72°
2026-04-24 05:34 38.72357 -78.40819 11157 ft 313 kts 72°
2026-04-24 05:34 38.72990 -78.38248 11010 ft 293 kts 65°
2026-04-24 05:34 38.74086 -78.36120 10788 ft 285 kts 44°
2026-04-24 05:35 38.75505 -78.34255 10621 ft 298 kts 44°
2026-04-24 05:35 38.76930 -78.32325 10392 ft 297 kts 45°
2026-04-24 05:35 38.78311 -78.30430 10169 ft 293 kts 45°
2026-04-24 05:35 38.79691 -78.28526 9944 ft 289 kts 45°
2026-04-24 05:36 38.81044 -78.26655 9726 ft 284 kts 45°
2026-04-24 05:36 38.82385 -78.24797 9476 ft 283 kts 45°
2026-04-24 05:36 38.83720 -78.22947 9259 ft 282 kts 45°
2026-04-24 05:36 38.85040 -78.21094 9042 ft 279 kts 49°
2026-04-24 05:37 38.85960 -78.18923 8703 ft 280 kts 72°
2026-04-24 05:37 38.86495 -78.16503 8415 ft 285 kts 72°
2026-04-24 05:37 38.87076 -78.14085 8082 ft 289 kts 71°
2026-04-24 05:37 38.87687 -78.11633 7753 ft 289 kts 71°
2026-04-24 05:38 38.88302 -78.09180 7396 ft 288 kts 71°
2026-04-24 05:38 38.88915 -78.06736 7073 ft 287 kts 71°
2026-04-24 05:38 38.89521 -78.04317 6861 ft 282 kts 71°
2026-04-24 05:38 38.90113 -78.01952 6665 ft 276 kts 71°
2026-04-24 05:39 38.90694 -77.99625 6480 ft 273 kts 71°
2026-04-24 05:39 38.91275 -77.97300 6288 ft 274 kts 71°
2026-04-24 05:39 38.91857 -77.94971 6132 ft 275 kts 71°
2026-04-24 05:39 38.92429 -77.92676 6064 ft 272 kts 71°
2026-04-24 05:40 38.93002 -77.90375 6007 ft 270 kts 71°
2026-04-24 05:40 38.93572 -77.88083 6001 ft 271 kts 71°
2026-04-24 05:40 38.94150 -77.85763 6006 ft 274 kts 71°
2026-04-24 05:40 38.94731 -77.83420 6002 ft 276 kts 71°
2026-04-24 05:41 38.95312 -77.81078 6004 ft 275 kts 71°
2026-04-24 05:41 38.95892 -77.78740 5999 ft 274 kts 71°
2026-04-24 05:41 38.96446 -77.76408 5995 ft 269 kts 76°
2026-04-24 05:41 38.96473 -77.74028 5883 ft 275 kts 98°
2026-04-24 05:42 38.96139 -77.71577 5704 ft 281 kts 98°
2026-04-24 05:42 38.95856 -77.69090 5497 ft 280 kts 97°
2026-04-24 05:42 38.95593 -77.66634 5292 ft 275 kts 97°
2026-04-24 05:42 38.95282 -77.64246 5096 ft 268 kts 107°
2026-04-24 05:43 38.94305 -77.62235 4915 ft 271 kts 140°
2026-04-24 05:43 38.92684 -77.61018 4772 ft 270 kts 160°
2026-04-24 05:43 38.90908 -77.60141 4570 ft 275 kts 160°
2026-04-24 05:43 38.89133 -77.59235 4394 ft 272 kts 160°
2026-04-24 05:44 38.87441 -77.58370 4187 ft 255 kts 159°
2026-04-24 05:44 38.85865 -77.57566 4060 ft 232 kts 162°
2026-04-24 05:44 38.84338 -77.57268 3994 ft 215 kts 185°
2026-04-24 05:44 38.82853 -77.57384 4007 ft 214 kts 185°
2026-04-24 05:45 38.81363 -77.57370 3874 ft 216 kts 168°
2026-04-24 05:45 38.80042 -77.56472 3685 ft 217 kts 131°
2026-04-24 05:45 38.79360 -77.54806 3459 ft 209 kts 97°
2026-04-24 05:45 38.79222 -77.53018 3341 ft 198 kts 91°
2026-04-24 05:46 38.79100 -77.51303 3179 ft 194 kts 92°
2026-04-24 05:46 38.78974 -77.49571 2881 ft 198 kts 91°
2026-04-24 05:46 38.78876 -77.47800 2550 ft 198 kts 81°
2026-04-24 05:46 38.79375 -77.46236 2416 ft 187 kts 42°
2026-04-24 05:47 38.80306 -77.45077 2410 ft 187 kts 33°
2026-04-24 05:47 38.81413 -77.44260 2400 ft 179 kts 12°
2026-04-24 05:47 38.82597 -77.44006 2227 ft 171 kts
2026-04-24 05:47 38.83764 -77.43823 2010 ft 166 kts 360°
2026-04-24 05:48 38.84901 -77.43757 1812 ft 164 kts 356°
2026-04-24 05:48 38.85982 -77.43737 1575 ft 149 kts 355°
2026-04-24 05:48 38.86956 -77.43723 1394 ft 133 kts 355°
2026-04-24 05:48 38.87845 -77.43712 1267 ft 127 kts 356°
2026-04-24 05:49 38.88750 -77.43701 1068 ft 133 kts 357°
2026-04-24 05:49 38.89692 -77.43689 875 ft 136 kts 359°
2026-04-24 05:49 38.90632 -77.43666 703 ft 135 kts 360°
2026-04-24 05:49 38.91577 -77.43654 526 ft 136 kts 359°
2026-04-24 05:50 38.92519 -77.43642 359 ft 135 kts 359°
2026-04-24 05:50 38.93407 -77.43628 305 ft 115 kts
2026-04-24 05:50 38.94022 -77.43621 306 ft 62 kts
2026-04-24 05:50 38.94295 -77.43615 307 ft 30 kts 359°
2026-04-24 05:51 38.94468 -77.43689 307 ft 24 kts 328°
2026-04-24 05:51 38.94583 -77.43777 307 ft 16 kts 329°
2026-04-24 05:51 38.94637 -77.43847 309 ft 8 kts 286°
2026-04-24 05:51 38.94645 -77.43916 307 ft 8 kts 277°
2026-04-24 05:52 38.94651 -77.43984 306 ft 7 kts 272°
2026-04-24 05:52 38.94651 -77.44042 307 ft 6 kts 269°
2026-04-24 05:52 38.94650 -77.44083 307 ft 3 kts 269°
2026-04-24 05:52 38.94650 -77.44106 307 ft 2 kts 268°
2026-04-24 05:53 38.94649 -77.44128 306 ft 4 kts 271°
2026-04-24 05:53 38.94651 -77.44177 307 ft 7 kts 272°
2026-04-24 05:53 38.94652 -77.44252 308 ft 9 kts 271°
2026-04-24 05:53 38.94644 -77.44282 306 ft 3 kts 227°
2026-04-24 05:54 38.94627 -77.44296 306 ft 3 kts 211°
2026-04-24 05:54 38.94609 -77.44307 306 ft 3 kts 206°
2026-04-24 05:54 38.94591 -77.44317 306 ft 3 kts 203°
2026-04-24 05:54 38.94586 -77.44320 305 ft 0 kts 203°